Terminal Aerodrome Forecast
Issued by NWS Atlanta, GA

Home | Current Version | Previous Version | Text Only | Print | Product List | Glossary On
Versions: 1 2 3 4 5 6 7 8 9 10 11 12 13 14 15 16 17 18 19 20 21 22 23 24 25 26
000
FTAK31 PAJN 210225 AAA
TAFAHN
TAF AMD
PAHN 210225Z 2102/2124 30012G18KT P6SM BKN060 OVC070
      TEMPO 2103/2104 6SM BLDU OVC050
     FM212300 30013KT 5SM -SHSN BKN025 OVC040
      AMD LTD TO CLD VIS AND WIND=

USA.gov is the U.S. government's official web portal to all federal, state and local government web resources and services.